Location: Newark
(33.6439°N, 114.9881°W)
Time: 02:52:11
(UTC+00:00)

Tiros 1 - Pass Details

Date: 26 July 2019
Orbit: 630 x 664 km, 48.4° (Epoch: 21 August)

Event Time Altitude Azimuth Distance (km) Brightness Sun altitude
Rises 01:55:13 0° 292° (WNW) 2,988 12.9 8.9°
Reaches altitude 10° 01:58:09 10° 275° (W) 2,068 11.9 8.4°
Maximum altitude 02:01:28 19° 231° (SW) 1,550 9.6 7.7°
Drops below altitude 10° 02:04:46 10° 186° (S) 2,047 9.6 7.1°
Sets 02:07:40 0° 168° (SSE) 2,947 10.2 6.5°
